Reflectivity
14 16 16 -19 -20 -20 -20 -20 -20 -20 2 -20 -20 -20 -20 -20 -16 -20 -20 4 -12 -18 5 4 20 12 9 2 4 8 -20 -20 -20 -20 -20 -20 -20 -20
20 14 2 24 -20 -20 -20 -20 -20 -20 -20 -20 -20 -20 -20 -20 -20 -20 -20 -20 -20 -14 -20 -3 12 10 11 8 -12 -20 -20 -20 -20 -20 -20 -20 -20 -20
21 21 -12 25 19 -20 -20 -20 -20 -20 -20 -20 -20 -20 -20 -20 -20 -20 -20 -20 -18 -6 -7 10 11 6 11 7 -6 -20 -20 -20 -20 -20 -20 -20 -20 -20
18 18 21 22 21 -8 -20 -20 -20 -20 -20 -20 -20 -20 -20 -20 -20 -20 -20 -20 -20 -0 -20 11 12 11 3 9 -10 -20 -20 -20 -20 -20 -20 -20 -20 -20
3 10 20 20 20 20 -19 -20 -20 -20 -20 -20 -20 -20 -20 -20 -20 -20 -20 -20 -20 -2 5 12 12 12 11 7 9 -7 -20 -20 -20 -20 -20 -20 -20 -20
25 28 -19 18 20 32 17 -7 -20 -20 -20 13 -14 -20 -20 -20 -20 -20 -20 -20 -20 -20 -20 4 13 13 -1 7 -11 -20 -20 -18 -20 -20 -20 -19 -20 -20
33 27 27 -3 3 12 27 25 -12 -20 -20 -20 11 -3 -20 -20 -20 -20 -20 -20 -20 -20 -20 -19 -15 -8 -9 10 -7 -4 -20 -6 -20 -20 1 -3 -20 -20
26 15 20 25 18 1 29 32 24 -5 -20 -18 1 16 -5 -19 -20 -20 -20 -20 -20 -20 -20 -15 -20 -17 -20 -15 21 -7 8 16 -20 -14 -9 -9 -20 -20
15 37 31 32 28 24 25 32 39 23 -6 -20 4 -1 12 -11 5 15 -8 -12 -20 -20 20 34 32 15 20 16 25 19 22 8 -20 -13 -18 -19 -20 -20
19 10 23 28 27 30 32 25 24 42 19 34 -13 -20 1 19 19 19 22 7 34 20 35 37 25 12 18 16 26 22 16 12 -20 -19 -20 -20 -20 -15
24 18 22 25 18 23 22 32 29 30 37 35 42 32 24 24 17 28 33 26 27 29 25 18 26 27 23 15 20 28 21 -1 -3 1 14 7 -14 -16
27 15 8 28 31 19 25 26 32 30 24 21 34 34 37 37 42 37 28 32 35 26 18 29 28 26 27 20 15 31 27 29 22 19 13 -13 -18 3
-20 3 18 29 24 30 27 18 26 22 21 26 30 34 35 38 35 34 32 21 18 21 13 23 35 34 24 26 18 22 19 25 30 26 7 6 5 -19
-20 -20 -20 2 21 21 29 31 27 28 27 31 27 27 28 30 28 24 26 23 17 26 22 26 32 28 16 19 10 9 31 23 28 27 8 9 19 4
-20 -20 2 3 7 13 23 29 26 16 16 21 21 14 18 22 26 24 27 31 21 22 32 33 33 36 34 25 8 8 19 24 26 18 12 8 -12 -8
-20 -20 -5 -6 1 1 12 13 -9 15 29 11 16 15 18 29 23 30 27 33 31 32 33 35 28 30 35 28 22 24 23 23 23 19 22 19 9 -2
9 -19 -8 -8 -8 -20 -18 -16 7 9 12 25 18 20 18 18 27 30 29 35 32 27 31 31 32 28 26 18 18 23 23 23 20 21 23 18 15 6
5 -13 -20 -11 -1 -12 -2 -3 -0 22 16 22 29 27 24 25 19 31 34 36 30 29 34 28 23 25 27 25 21 17 20 20 22 23 22 19 9 4
6 7 5 -2 8 -8 -1 -0 5 -0 0 10 27 27 28 20 27 34 30 27 28 27 24 23 24 24 24 21 22 23 25 23 20 15 16 14 14 11
4 -13 -1 -2 7 4 -2 -6 7 15 6 9 17 19 21 21 25 22 23 26 25 25 26 25 28 28 22 16 21 25 26 24 21 19 17 17 15 13
-7 -10 -12 -13 -8 -2 -7 -8 -2 17 12 -1 9 12 7 14 10 10 18 25 23 23 24 26 28 25 20 22 25 25 23 19 17 18 16 14 14 9
-20 -20 -20 -20 -20 -17 -19 -19 -11 -1 8 7 2 7 10 -3 11 18 17 21 21 15 18 27 27 24 23 20 15 17 20 22 19 18 18 15 13 12
-20 -20 -20 -20 -20 -20 -20 -20 -20 -20 -13 -15 1 9 12 14 16 12 17 18 21 20 26 26 24 23 20 18 20 20 17 15 16 16 10 6 9 12
Wind_Speed
13 11 11 9 7 6 5 9 7 8 9 8 6 10 8 7 7 11 12 15 14 12 9 6 11 15 16 17 14 13 13 13 11 10 9 8 7 6
11 13 12 10 9 7 7 8 6 6 9 10 10 7 11 8 10 12 11 16 20 18 14 17 15 12 15 16 16 14 14 14 14 13 12 10 9 8
14 15 17 15 10 9 8 8 7 5 8 4 3 6 12 13 11 11 9 9 8 16 20 21 22 21 18 18 17 16 16 16 15 15 14 13 11 9
17 17 17 12 15 12 10 13 10 9 8 8 8 8 9 14 13 13 9 7 8 14 21 22 22 23 23 21 18 17 16 17 17 16 14 14 13 11
20 18 18 17 16 14 13 12 11 9 9 5 6 3 7 5 8 10 11 11 7 10 20 22 22 22 21 21 21 20 19 18 17 17 16 15 13 12
18 19 19 19 19 19 16 17 14 12 10 10 4 4 4 5 7 10 8 7 9 7 15 15 19 21 22 23 23 22 20 20 20 19 18 15 14 13
18 17 18 21 24 23 15 18 18 14 12 12 7 4 6 5 14 9 11 8 9 9 9 10 11 11 13 20 18 21 20 22 22 20 19 18 16 15
18 17 17 18 22 28 30 29 25 20 19 15 13 13 14 11 10 11 11 7 8 9 12 11 11 11 10 11 20 22 23 23 22 20 20 19 18 16
16 16 15 14 21 20 27 29 31 34 32 20 21 19 19 16 13 15 16 14 11 7 15 12 7 11 9 10 23 24 24 23 22 21 20 19 19 18
12 17 18 19 19 19 19 20 22 21 22 19 22 21 20 18 20 20 19 11 3 1 13 10 7 10 8 9 25 25 25 24 23 22 20 20 19 18
9 8 10 15 20 23 20 18 17 20 20 27 24 19 15 18 19 10 10 12 8 6 12 7 6 8 7 9 12 28 27 25 24 23 21 21 21 19
8 8 14 15 16 20 19 18 16 18 16 15 16 17 18 19 30 21 16 15 11 7 10 11 7 8 4 4 9 12 14 26 25 23 23 23 23 9
8 8 7 18 19 16 22 15 16 15 16 15 12 11 12 14 14 17 17 17 16 9 11 14 8 9 4 5 7 10 11 12 12 16 25 24 25 16
10 8 9 16 15 20 17 23 24 16 10 10 10 11 13 12 14 16 17 16 12 10 15 19 6 12 11 5 5 8 9 10 9 10 10 15 24 21
9 15 23 20 22 17 23 25 21 13 11 11 12 13 12 13 10 9 10 7 3 9 13 21 6 12 10 6 7 8 12 7 8 8 7 8 7 5
13 12 16 20 21 19 17 15 13 12 11 11 11 11 7 7 10 9 8 8 7 3 9 15 10 14 9 5 6 10 8 9 9 7 8 7 6 5
16 10 9 9 10 9 11 12 10 10 11 12 11 10 9 10 11 11 10 10 11 9 10 7 7 6 6 9 6 9 10 4 10 9 7 7 6 7
11 10 11 10 11 9 9 9 9 13 11 10 10 10 11 13 12 9 10 12 13 11 10 9 12 9 4 4 4 10 6 6 7 9 8 7 6 7
9 10 9 10 10 9 8 8 9 9 9 10 10 11 11 11 15 12 12 11 8 10 10 11 13 12 10 6 3 10 11 8 9 8 6 3 4 7
9 11 11 9 8 9 8 8 9 8 7 9 9 10 11 11 11 12 12 12 11 9 9 10 13 13 14 11 7 4 14 12 8 8 6 3 3 5
9 11 10 9 8 9 8 8 10 10 9 9 10 10 10 10 10 10 12 18 17 10 13 12 10 16 11 11 8 7 8 16 11 10 9 7 6 5
11 11 11 9 8 9 9 9 8 9 9 9 9 9 10 10 11 12 12 14 13 12 10 9 11 11 9 7 11 12 8 8 10 17 19 12 7 7
11 11 10 8 8 8 9 9 9 9 9 9 8 8 9 9 8 10 11 11 12 11 13 12 10 7 8 10 14 10 10 11 6 6 6 12 9 7
Wind_Direction
210 207 210 205 200 200 172 187 171 183 216 214 190 204 209 203 202 191 180 178 181 189 195 191 175 173 175 169 185 197 188 179 180 179 173 170 164 163
209 206 208 209 204 196 195 196 219 197 210 194 207 185 195 205 208 208 206 188 186 189 183 157 157 170 174 169 171 191 193 191 193 190 183 180 179 174
208 207 212 209 207 198 198 203 209 201 220 172 199 176 194 203 209 214 209 211 200 187 175 172 171 170 176 171 169 193 201 198 200 199 197 187 191 191
209 210 213 208 209 203 198 205 209 204 206 201 189 192 199 206 206 208 207 207 204 197 184 180 179 179 177 172 178 192 201 204 204 203 200 202 199 200
211 207 211 209 209 210 204 208 207 209 213 192 175 186 202 188 201 209 208 209 209 205 194 187 187 188 182 176 180 190 195 201 201 199 202 207 204 203
216 213 211 212 210 208 206 209 207 206 203 215 174 167 187 192 205 199 203 210 204 200 207 197 192 192 187 186 189 188 192 195 199 200 202 205 202 200
215 220 214 215 214 214 207 204 206 206 203 207 194 166 173 171 197 192 211 197 212 197 204 198 193 192 195 196 195 189 189 196 200 203 200 196 198 199
215 216 223 216 220 216 215 214 203 200 208 205 207 216 203 204 184 193 192 182 205 200 197 205 193 196 194 193 190 190 192 199 201 202 207 202 195 200
225 225 224 225 218 220 222 221 216 209 207 199 210 209 211 198 186 190 197 205 214 171 190 201 204 202 189 192 189 193 194 199 203 203 205 207 198 200
258 236 227 224 220 216 219 221 221 223 220 216 215 214 215 199 198 197 198 187 59 105 187 205 177 205 184 192 194 194 195 199 203 203 205 208 199 203
267 275 251 236 230 218 220 223 219 222 220 222 238 229 218 204 189 159 187 175 199 170 197 184 181 188 182 190 197 195 197 200 202 204 201 209 198 203
270 249 253 260 245 214 217 224 223 225 217 212 222 222 206 192 190 190 183 193 201 187 190 183 160 151 183 211 195 197 195 199 202 204 206 210 196 200
278 275 255 245 246 242 216 221 222 219 223 223 217 215 216 215 202 210 196 198 196 213 180 171 173 175 151 153 184 197 189 190 198 207 209 209 198 189
281 280 279 283 262 246 233 228 232 222 222 217 218 213 211 203 203 204 204 205 207 212 164 189 170 181 177 152 168 174 187 192 186 194 191 203 210 186
295 288 287 284 277 266 246 243 229 225 226 215 210 213 209 206 202 212 204 193 129 145 169 188 174 190 183 167 153 172 157 180 178 165 163 166 162 163
282 279 281 282 272 262 262 243 237 235 212 218 220 216 195 176 182 180 182 174 175 156 179 182 167 171 182 175 143 154 166 169 165 164 151 158 166 177
288 280 278 277 273 264 254 244 237 229 215 214 216 200 188 187 194 185 190 182 194 173 167 163 156 147 123 150 141 159 153 129 165 148 142 155 187 187
285 276 280 276 268 260 252 244 230 229 230 207 216 204 200 192 190 187 189 195 194 181 173 162 150 123 117 45 104 144 149 130 143 150 145 157 182 196
284 276 270 266 257 246 244 244 240 233 229 221 208 202 202 201 193 185 190 193 187 175 170 166 168 166 161 139 101 162 142 145 138 149 153 135 158 187
281 278 275 271 262 261 256 250 253 249 230 225 214 213 200 194 190 191 185 182 172 162 160 169 173 173 169 155 138 141 156 142 155 149 149 126 88 140
287 282 272 269 265 268 258 254 248 245 227 219 215 205 205 184 185 186 180 174 165 164 167 173 174 147 117 110 113 140 148 164 154 154 149 149 156 171
285 280 276 261 262 261 259 253 245 238 228 213 207 199 190 194 180 180 179 170 174 170 161 143 138 141 141 143 139 140 142 147 163 165 166 151 159 186
289 285 278 265 261 256 252 245 235 230 218 205 197 196 182 187 179 180 173 172 157 158 143 139 140 136 126 136 138 139 142 146 139 156 172 193 178 148